EW5449 Weather Reports


Display with metric or nautical units.
time (UTC)temp
F
wind
direction
speed
MPH
gust
MPH
rain 1hr
in
rain 24hr
in
rain mn
in
humidity
%
barometer
mb
20260902203020 82 51 0.0 2.0 0.00 0.00 0.00 70 1016.2
20260902201519 81 100 0.0 2.0 0.00 0.00 0.00 72 1016.2
20260902200026 79 336 0.0 3.0 0.00 0.00 0.00 75 1016.4
20260902194521 78 97 0.0 2.0 0.00 0.00 0.00 75 1016.8
20260902193015 78 262 0.0 2.0 0.00 0.00 0.00 77 1017.0
20260902191516 79 343 0.0 2.0 0.00 0.00 0.00 75 1017.0
20260902190027 78 336 0.0 6.0 0.00 0.00 0.00 76 1016.0
20260902184517 78 333 1.0 5.0 0.00 0.00 0.00 75 1016.7
20260902183013 80 348 1.0 8.0 0.00 0.00 0.00 74 1017.0
20260902181512 82 290 1.0 6.0 0.00 0.00 0.00 71 1016.5
20260902180010 90 338 3.0 9.0 0.00 0.00 0.00 57 1016.3
20260902174509 95 341 0.0 3.0 0.00 0.00 0.00 54 1015.4
20260902173008 95 346 0.0 3.0 0.00 0.00 0.00 51 1016.2
20260902171505 95 113 0.0 2.0 0.00 0.00 0.00 51 1016.3
20260902170001 94 182 1.0 3.0 0.00 0.00 0.00 50 1016.5
20260902164559 93 202 0.0 4.0 0.00 0.00 0.00 53 1016.6
20260902163101 93 342 1.0 5.0 0.00 0.00 0.00 54 1016.7
20260902161555 93 175 0.0 3.0 0.00 0.00 0.00 54 1016.7
20260902160055 91 206 0.0 2.0 0.00 0.00 0.00 58 1016.7
20260902154550 91 183 0.0 2.0 0.00 0.00 0.00 56 1016.7
20260902153047 91 205 0.0 2.0 0.00 0.00 0.00 57 1016.7
20260902151544 89 183 0.0 2.0 0.00 0.00 0.00 61 1016.7
20260902150039 87 186 0.0 2.0 0.00 0.00 0.00 62 1016.7
20260902144536 86 190 0.0 3.0 0.00 0.00 0.00 64 1016.7
20260902143033 85 130 0.0 2.0 0.00 0.00 0.00 67 1016.8
20260902141536 84 132 0.0 2.0 0.00 0.00 0.00 69 1016.7
20260902140026 82 184 0.0 2.0 0.00 0.00 0.00 71 1016.7
20260902134522 81 186 0.0 2.0 0.00 0.00 0.00 73 1016.9
20260902133018 79 184 0.0 2.0 0.00 0.00 0.00 75 1016.7
20260902131521 78 186 0.0 2.0 0.00 0.00 0.00 77 1016.8
20260902130013 77 157 0.0 2.0 0.00 0.00 0.00 78 1017.0
20260902124512 76 171 0.0 2.0 0.00 0.00 0.00 80 1016.7
20260902123011 75 178 0.0 2.0 0.00 0.00 0.00 81 1016.8
20260902121511 75 259 0.0 2.0 0.00 0.00 0.00 82 1016.7
20260902120010 74 281 0.0 0.0 0.00 0.00 0.00 83 1016.7
20260902114518 74 281 0.0 2.0 0.00 0.00 0.00 84 1016.7
20260902113010 74 281 0.0 0.0 0.00 0.00 0.00 84 1016.6
20260902111508 74 281 0.0 2.0 0.00 0.00 0.00 84 1016.7
20260902110013 74 184 0.0 2.0 0.00 0.00 0.00 86 1016.6
20260902104507 74 184 0.0 2.0 0.00 0.00 0.00 86 1016.5
20260902103007 73 184 0.0 2.0 0.00 0.00 0.00 86 1016.7
20260902101503 73 184 0.0 0.0 0.00 0.00 0.00 86 1016.6
20260902100004 74 184 0.0 0.0 0.00 0.00 0.00 86 1016.5
20260902094501 74 184 0.0 2.0 0.00 0.00 0.00 85 1016.4
20260902093100 74 184 0.0 0.0 0.00 0.00 0.00 83 1016.5
20260902091559 74 184 0.0 0.0 0.00 0.00 0.00 82 1016.3
20260902090107 74 184 0.0 0.0 0.00 0.00 0.00 81 1016.4
20260902084559 75 184 0.0 2.0 0.00 0.00 0.00 81 1016.3
20260902083054 75 184 0.0 0.0 0.00 0.00 0.00 80 1016.4
20260902081553 75 184 0.0 0.0 0.00 0.00 0.00 80 1016.2
20260902080104 75 184 0.0 0.0 0.00 0.00 0.00 79 1016.2
20260902074550 75 184 0.0 0.0 0.00 0.00 0.00 79 1016.1
20260902073055 75 184 0.0 0.0 0.00 0.00 0.00 78 1016.0
20260902071554 76 184 0.0 0.0 0.00 0.00 0.00 78 1016.0
20260902070050 76 184 0.0 0.0 0.00 0.00 0.00 77 1015.9
20260902064551 76 184 0.0 2.0 0.00 0.00 0.00 76 1016.1
20260902063047 77 184 0.0 2.0 0.00 0.00 0.00 76 1015.9
20260902061548 76 185 0.0 2.0 0.00 0.00 0.00 76 1015.9
20260902060046 76 167 0.0 2.0 0.00 0.00 0.00 77 1016.0
20260902054542 77 167 0.0 2.0 0.00 0.00 0.00 76 1016.1
20260902053043 77 298 0.0 0.0 0.00 0.00 0.00 74 1016.0
20260902051541 77 298 0.0 1.0 0.00 0.00 0.00 73 1016.3
20260902050042 78 298 0.0 0.0 0.00 0.00 0.00 73 1016.2
20260902044539 78 298 0.0 2.0 0.00 0.00 0.00 72 1016.2
20260902043037 77 177 0.0 2.0 0.00 0.00 0.00 72 1016.1
20260902041535 77 177 0.0 0.0 0.00 0.00 0.00 74 1016.0
20260902040033 77 177 0.0 0.0 0.00 0.00 0.00 73 1015.7
20260902034531 77 177 0.0 0.0 0.00 0.00 0.00 73 1015.4
20260902033039 78 177 0.0 0.0 0.00 0.00 0.00 73 1015.1
20260902031533 78 177 0.0 0.0 0.00 0.00 0.00 72 1015.0
20260902030031 79 177 0.0 0.0 0.00 0.00 0.00 71 1014.9
20260902024530 80 177 0.0 0.0 0.00 0.00 0.00 69 1014.8
20260902023031 81 177 0.0 0.0 0.00 0.00 0.00 68 1014.9
20260902021534 82 177 0.0 0.0 0.00 0.00 0.00 66 1015.1
20260902020028 83 177 0.0 2.0 0.00 0.00 0.00 64 1015.0
20260902014536 84 177 0.0 0.0 0.00 0.00 0.00 61 1015.1
20260902013027 85 182 0.0 2.0 0.00 0.00 0.00 59 1014.8
20260902011535 85 183 0.0 2.0 0.00 0.00 0.00 59 1014.5
20260902010042 85 192 0.0 2.0 0.00 0.00 0.00 60 1014.4
20260902004532 85 202 0.0 3.0 0.00 0.00 0.00 60 1014.4
20260902003025 86 203 0.0 3.0 0.00 0.00 0.00 59 1014.2
20260902001525 86 222 0.0 3.0 0.00 0.00 0.00 59 1013.9
20260902000042 87 192 0.0 2.0 0.00 0.00 0.00 61 1013.7
20260901234549 88 188 0.0 2.0 0.00 0.00 0.00 59 1013.6
20260901233023 88 183 0.0 2.0 0.00 0.00 0.00 58 1013.6
20260901231536 89 195 0.0 4.0 0.00 0.00 0.00 57 1013.6
20260901230023 89 227 0.0 2.0 0.00 0.00 0.00 58 1013.5
20260901224529 91 232 0.0 2.0 0.00 0.00 0.00 57 1013.7
20260901223033 91 192 0.0 2.0 0.00 0.00 0.00 56 1013.7
20260901221527 91 202 0.0 2.0 0.00 0.00 0.00 55 1013.6
20260901220020 91 226 1.0 2.0 0.00 0.00 0.00 53 1013.6
20260901214518 92 336 2.0 5.0 0.00 0.00 0.00 51 1013.6
20260901213018 93 206 1.0 8.0 0.00 0.00 0.00 51 1013.6
20260901211518 93 253 1.0 8.0 0.00 0.00 0.00 51 1013.7
20260901210017 92 242 1.0 6.0 0.00 0.00 0.00 51 1013.9
20260901204517 92 207 3.0 9.0 0.00 0.00 0.00 49 1013.7